User: anonymous   Login
Location: Unspecified
(0.0000°N, 0.0000°E)
Time: 09:48:36
(UTC+00:00)
Language:

USA 184 - Orbit

View from above orbital plane
View from above orbital plane
View from above satellite
View from above satellite

Ground track
Ground track

The orbit data is extracted from the following two-line orbital elements,

1 29249U 06027A   16339.66800508 0.00000000  00000-0  00000-0 0    09
2 29249  62.8816 303.6561 7086710 268.9717  16.5913  2.00617000    03
Epoch (UTC): 04 December 2016 16:01:55
Eccentricity: 0.7086710
inclination: 62.8816°
perigee height: 1358 km
apogee height: 38996 km
right ascension of ascending node: 303.6561°
argument of perigee: 268.9717°
revolutions per day: 2.00617000
mean anomaly at epoch: 16.5913°
orbit number at epoch: 0

The dashed part of the orbit path shows where the satellite is in the earth's shadow,  

DLR